星链-3544 (STARLINK-3544 )

导读

STARLINK-3544是美国SpaceX星链星座的组网卫星,于2022年2月25日发射入轨。星链项目计划打造近四万颗卫星的全球互联网星座,该星属于一代组网卫星,运行在近地轨道,配备相控阵天线与氪离子推进系统,可提供低时延全球宽带接入服务,截至2026年仍在轨运行,承担全球互联网覆盖任务。

Basic Information
目录编号:
51803
目录名称:
STARLINK-3544
国际标识:
2022-017AM
轨道中心:
EARTH
卫星名称:
星链-3544
卫星全名:
星链-3544 (STARLINK-3544 )
卫星状态:
在轨 (已飞行1660 天)
发射日期:
2022-02-25 UTC
国别 :
美国 (US)
星等 :
--
This satellite is enrolled in the Space Conjunction Data Service (SCDS) and the current flight risk assessment level is: No High Risk
Orbit Information
数据来源 国际轨道数据 AOE轨道数据
星历时间 2026-09-11T14:19:19+0800
1天前
查看轨道信息
2026-09-07T00:00:00+0800
5天前
查看轨道信息
半长轴 6840.863km 6840.809km
偏心率 0.0001281 0.0001256
轨道倾角 53.157° 53.157°
近地点辐角 88.085° 77.088°
升交点赤经 221.238° 242.729°
平近点角 272.029° 77.316°
近地点 461.849km 461.812km
远地点 463.603km 463.532km
周期 93.848分钟 93.847分钟
每日圈数 15.343926 15.344107
Detailed Information
固有亮度:
5
最大亮度:
2.5
卫星平台:
Starlink v1.5
覆盖范围:
全球
运营商:
太空探索技术公司
运营商所在国:
美国
制造商(研发单位):
太空探索技术公司
制造商所在国:
美国
使用方式:
暂无
Satellite Introduction
星链(Starlink)计划是由太空探索技术公司(SpaceX)提出的一个巨型低轨卫星互联网星座项目,计划在2019年至2024年间在太空搭建由约1.2万颗卫星组成的“星链”网络,其中1584颗将部署在地球上空550千米处的近地轨道,并从2020年开始工作。该卫星仍在工作。
2D Orbit Map
3D Orbit Map
Orbit Altitude Analysis Chart
Orbit Inclination Analysis Chart
Orbit Comprehensive Analysis Chart
View Comprehensive Chart
Miss Distance Evolution Trend with All Objects
Collision Probability Evolution Trend with All Objects